Regional Weather Roundup
Issued by NWS Portland, ME

Home | Current Version | Previous Version | Text Only | Print | Product List | Glossary On
Versions: 1 2 3 4 5 6 7 8 9 10 11 12 13 14 15 16 17 18 19 20 21 22 23 24 25 26 27 28 29 30 31 32 33 34 35 36 37 38 39 40 41 42 43 44 45 46 47 48 49 50
000
ASUS41 KGYX 311105
RWRGYX
WEATHER ROUNDUP FOR MAINE AND NEW HAMPSHIRE
NATIONAL WEATHER SERVICE GRAY ME
700 AM EDT SUN AUG 31 2014

MEZ002-005-006-010-012-015-018-020-021-024-026-027-029-311200-
MAINE

CITY           SKY/WX    TMP DP  RH WIND       PRES   REMARKS
PORTLAND       CLOUDY    63  61  93 S6        30.04S
SANFORD        MOCLDY    63  57  82 SW6       30.06S
BAR HARBOR     CLOUDY    63  61  94 SW12      30.03S
WISCASSET      CLOUDY    66  62  87 SW10G20   30.04F
ROCKLAND       CLOUDY    64  63  94 SW10G18   30.02S
FRYEBURG       CLOUDY    65  60  84 CALM      30.02S
LEWISTONAUBURN CLOUDY    63  57  82 S5        30.02S
AUGUSTA        CLOUDY    62  60  93 S6        30.02S
WATERVILLE     CLOUDY    61  59  94 S6        29.98S
BANGOR         PTSUNNY   64  60  87 S10       30.01S
GREENVILLE       N/A     56  56 100 CALM      30.01R
MILLINOCKET    CLOUDY    61  57  87 VRB3      30.00R
HOULTON        CLOUDY    60  57  89 S9        29.97S
PRESQUE ISLE   CLOUDY    59  54  82 SE6       29.95R
FRENCHVILLE    LGT RAIN  57  56  96 S9        29.92R
CARIBOU        LGT RAIN  58  54  86 S9        29.95R
$$

NHZ002-005-008-009-011-012-014-311200-
NEW HAMPSHIRE

CITY           SKY/WX    TMP DP  RH WIND       PRES   REMARKS
PORTSMOUTH     CLOUDY    68  64  87 S6        30.04F
ROCHESTER      MOCLDY    63  61  93 CALM      30.05S
NASHUA         PTCLDY    69  65  87 CALM      30.07F
MANCHESTER     MOCLDY    69  64  84 S5        30.04F
CONCORD        MOCLDY    64  62  93 SE6       30.05F
LACONIA        MOCLDY    64  59  82 CALM      30.04S
PLYMOUTH       FAIR      56  56 100 CALM      30.06R FOG
BERLIN         CLOUDY    59  57  93 CALM      30.04R
WHITEFIELD     CLOUDY    57  54  89 CALM      30.05R
JAFFREY        CLOUDY    68  64  87 SW9       30.10S
LEBANON        MOCLDY    66  61  84 S5        30.04S
MT WASHINGTON  NOT AVBL
$$

VTZ005-007-008-311200-
VERMONT

CITY           SKY/WX    TMP DP  RH WIND       PRES   REMARKS
ST JOHNSBURY     N/A     65  60  84 MISG      30.02R
MONTPELIER     MOCLDY    67  62  84 SE9       30.05F
BURLINGTON     LGT RAIN  70  64  81 S15G21    29.96F
$$

MAZ007-012-024-CTZ003-RIZ002-NYZ038-NYZ072-311200-
SOUTHERN NEW ENGLAND AND NY

CITY           SKY/WX    TMP DP  RH WIND       PRES   REMARKS
BOSTON         MOCLDY    70  65  84 SW10      30.08S
WORCESTER      MOCLDY    68  64  87 SW17      30.11S
NANTUCKET      CLOUDY    69  67  93 S9        30.15S
PROVIDENCE     CLOUDY    71  65  81 S8        30.12S
HARTFORD       CLOUDY    72  65  78 S8        30.08F
ALBANY         MOCLDY    70  63  78 S9        30.04S
NEW YORK CITY  CLOUDY    74  65  73 S8        30.11R
$$

ANZ081-ANZ082-ANZ150-NHZ014-MEZ023>029-311200-
COASTAL MARINE OBSERVATIONS

STATION/POSITION TIME  TEMP    WIND        PRES    WAVE
                       AIR SEA DIR/SP/G            HT/PER
                 (UTC) (F)     (DEG/KT/KT) (MB)    (FT/S)
MATINICUS ROCK   1000          220/ 24/ 26 1016.9F
PORTLAND WX BUOY 1050   63 60  200/ 16/ 17 1016.7F   4/ 6
WELLS            1000   63 59  170/  2/  3 1016.7F
ISLE OF SHOALS   1000   66     200/ 14/ 15 1017.4S
JEFFREYS LEDGE   1021      63                N/A     4/ 4
CASHES LEDGE BUO 1050   68 65              1017.5R   5/ 6
$$

.............KEY..............
   WCI - WIND CHILL
   TC  - TEMPERATURE IN CELSIUS
   VSB - VISIBILITY IN MILES
   HX  - HEAT INDEX
   FAIR- INDICATES FEW OR NO CLOUDS BELOW 12,000 FT, WITH NO
         SIGNIFICANT WEATHER AND/OR OBSTRUCTIONS TO VISIBILITY.




USA.gov is the U.S. government's official web portal to all federal, state and local government web resources and services.